SCP
2 2 2 3 4 4 4 4 3 3 3 3 2 2 1 1 1 1 2 2 2 2 2 2 2 2 2 3 3 3 3 2 2 2 2 1 2 2 2 2 2 2 1
5 4 4 4 4 5 5 4 4 3 3 3 2 2 1 1 1 1 2 2 2 2 2 2 2 2 3 3 3 3 3 3 3 3 2 2 2 2 2 2 2 2 2
7 7 5 4 5 6 6 5 4 4 3 3 2 2 2 1 1 2 2 2 2 2 2 2 2 2 2 3 3 4 4 3 3 3 3 3 2 2 2 2 2 2 2
6 6 5 4 5 5 5 5 4 4 3 3 2 2 2 2 2 2 2 3 3 2 2 2 2 2 2 2 3 3 3 3 3 3 3 3 3 2 2 2 2 3 3
4 4 4 4 4 4 5 5 4 4 3 3 3 2 2 2 2 2 2 3 3 3 3 3 3 2 2 2 2 2 2 3 3 3 3 3 3 3 3 3 3 3 3
4 4 4 4 4 5 5 6 6 5 4 4 3 3 2 2 2 2 3 3 4 4 3 4 4 4 3 2 2 2 2 2 3 3 3 3 3 3 3 3 3 3 3
4 5 5 5 5 5 7 8 9 8 7 5 4 3 3 3 3 3 4 5 6 6 5 5 6 5 4 3 2 2 2 2 2 3 3 3 3 3 3 3 3 2 2
5 6 6 6 6 6 7 9 11 12 10 7 5 4 4 4 4 4 5 7 8 8 7 6 6 5 5 4 3 3 2 2 2 3 3 3 3 3 3 3 3 2 2
8 7 7 7 7 7 8 9 12 14 13 11 8 6 5 5 6 6 7 10 11 9 8 6 6 6 5 4 4 3 3 3 3 3 3 3 3 3 3 3 3 2 2
12 10 9 8 7 7 8 10 12 14 14 13 10 8 7 7 7 8 10 12 12 10 7 7 7 7 6 4 4 4 4 4 3 3 3 3 3 3 3 3 3 2 2
12 13 11 8 6 6 7 10 13 15 15 15 14 12 9 9 9 10 12 13 12 9 7 7 8 8 6 5 4 4 4 4 4 4 4 4 4 4 3 3 3 3 3
10 12 12 9 7 7 8 11 13 15 16 17 17 15 12 11 11 12 12 11 9 8 7 7 9 8 7 5 5 4 4 4 5 5 5 5 5 5 4 4 4 4 4
9 11 13 13 12 12 15 17 17 16 17 19 20 18 15 13 11 11 9 8 7 7 7 7 8 8 7 6 5 5 5 5 5 5 5 6 6 6 6 6 6 5 5
12 14 16 17 17 19 21 22 20 18 19 20 22 20 16 12 10 8 7 6 6 6 6 6 7 7 7 6 5 5 5 5 5 5 5 6 6 7 7 7 7 7 6
17 18 19 18 19 20 20 20 20 20 20 21 21 19 16 11 9 7 7 6 6 6 7 7 7 7 6 5 5 5 5 5 5 5 5 5 5 6 6 7 7 7 7
16 17 17 19 21 20 18 18 20 21 19 18 17 16 13 10 9 7 7 7 8 8 8 9 9 8 5 4 4 4 5 5 5 6 6 6 5 5 5 5 5 6 7
11 12 16 20 22 20 19 20 21 19 16 14 13 12 11 10 9 8 8 8 9 9 11 12 11 8 5 3 3 4 5 6 6 7 7 7 6 6 6 5 4 5 5
9 12 17 20 20 20 20 19 18 15 13 12 11 10 10 9 9 9 9 9 9 10 13 13 11 8 5 3 3 4 6 7 7 7 7 7 6 6 6 5 5 5 6
13 15 17 19 20 20 19 17 15 14 12 11 10 10 9 9 9 9 10 10 10 11 11 10 8 7 6 4 2 4 6 8 8 7 7 6 5 5 4 5 5 6 6
16 17 18 18 20 20 18 16 14 13 12 11 11 11 11 11 10 9 10 10 10 9 8 7 7 7 7 4 2 3 7 8 8 7 6 5 4 3 3 4 6 7 7
16 16 15 16 18 19 18 16 15 14 13 13 15 15 13 11 9 9 9 10 9 8 7 7 7 7 7 4 2 3 6 8 9 8 6 5 4 3 2 3 5 6 7
14 13 12 13 16 18 17 16 16 17 18 19 19 15 11 8 7 8 10 10 9 8 7 8 8 8 7 5 3 3 5 8 10 9 7 5 3 2 1 2 3 4 5
12 11 10 11 14 15 15 15 16 17 19 20 18 13 9 7 8 9 10 10 8 7 8 8 9 9 9 7 5 3 3 6 9 9 6 3 2 1 1 1 2 3 4
10 10 10 10 11 13 13 13 13 13 14 14 13 10 8 9 10 10 10 10 10 9 8 9 10 11 11 10 7 4 4 6 8 6 4 3 2 1 2 2 3 4 5
9 9 9 10 10 10 11 11 11 10 9 9 8 8 9 10 11 9 8 9 10 10 9 9 10 11 12 10 8 6 6 7 6 5 4 4 3 2 3 4 5 5 6
8 8 9 10 10 8 8 9 10 10 9 8 7 7 9 10 10 7 5 6 8 8 8 9 10 11 11 9 7 7 7 7 5 4 5 5 5 4 4 4 6 7 7
Wind_Speed
16 16 15 16 15 13 11 10 9 8 6 5 5 4 4 3 3 4 5 5 4 4 3 2 3 3 3 3 3 2 3 3 2 2 2 3 4 3 3 3 2 3 3
16 16 16 16 16 14 12 11 9 10 8 5 4 3 3 3 4 3 4 5 4 4 4 3 2 3 2 3 3 2 2 2 2 1 1 2 2 2 3 3 3 3 2
17 17 16 16 15 14 13 12 10 10 9 7 5 4 3 2 3 3 4 4 5 5 3 4 3 2 2 2 3 3 3 3 2 1 1 1 1 1 1 2 2 2 2
16 17 17 16 16 15 14 11 11 10 9 7 6 7 5 5 4 4 4 5 5 5 4 4 3 2 2 2 4 3 3 3 3 2 2 2 1 1 1 1 1 2 2
15 16 17 16 15 15 15 12 11 10 9 8 7 6 5 4 4 4 4 5 5 5 4 4 3 3 3 3 2 2 3 2 3 2 2 2 2 3 2 2 1 1 1
13 15 15 14 13 14 14 13 11 10 10 9 9 8 7 5 5 4 4 4 4 4 5 4 4 3 3 3 3 2 3 3 3 3 2 2 2 2 2 2 2 2 2
12 13 14 15 13 13 13 13 13 12 11 11 9 8 7 6 5 5 5 5 4 4 5 5 4 4 4 3 3 3 3 4 4 3 3 3 3 2 2 1 2 1 1
12 13 14 13 13 13 13 13 13 12 12 11 9 7 7 6 5 6 5 5 3 3 4 5 5 5 4 4 3 3 4 3 4 5 4 3 3 2 2 2 1 1 1
9 11 12 12 12 12 12 13 13 12 12 11 9 8 7 6 6 5 5 4 3 4 4 5 5 4 4 4 3 3 4 3 3 4 3 3 3 3 2 2 1 2 2
4 7 8 11 11 11 10 11 12 12 11 10 9 8 7 6 5 4 5 4 3 3 3 4 4 4 5 5 4 3 3 4 4 3 3 3 3 3 2 2 2 2 2
2 3 5 7 9 10 10 10 10 10 10 10 8 7 7 7 5 4 5 4 4 4 4 4 4 4 4 4 4 4 4 4 4 4 4 4 3 3 3 2 2 2 2
1 2 3 5 7 9 9 8 8 9 9 7 7 7 6 6 6 6 5 4 4 4 4 4 4 4 4 4 4 4 4 4 4 4 4 4 4 4 3 3 3 2 2
1 1 1 3 5 6 7 7 7 8 8 7 6 6 6 6 6 5 4 4 4 4 4 4 4 4 4 4 4 4 4 4 4 3 4 4 4 4 3 3 3 2 3
2 2 2 3 4 4 5 6 6 6 7 7 7 6 5 5 5 4 4 4 4 4 4 4 4 4 4 3 3 4 4 4 4 4 4 4 4 4 4 4 3 3 3
3 2 3 4 4 5 4 4 5 5 5 6 6 5 5 4 4 4 3 4 4 5 4 4 4 4 4 4 3 4 5 4 4 4 3 4 3 4 3 3 3 3 3
2 3 3 4 4 4 3 3 3 4 4 5 5 5 5 4 4 4 4 4 4 4 4 5 4 5 5 3 4 3 4 3 4 4 3 3 4 4 5 3 2 3 4
2 2 3 3 2 3 3 3 3 3 4 4 4 4 5 5 4 5 4 4 3 4 4 4 4 4 4 4 4 4 3 4 4 4 3 4 4 3 3 4 4 3 4
1 1 1 2 2 2 3 2 3 3 4 4 4 4 5 4 4 4 4 3 3 3 3 4 4 4 4 5 5 4 5 5 5 4 4 4 3 3 2 3 4 4 4
1 1 1 1 1 2 2 3 3 3 3 3 4 4 5 4 4 3 3 2 3 3 3 3 3 4 4 5 5 4 4 4 5 5 5 5 4 4 4 4 4 3 3
3 2 2 1 2 2 2 3 3 3 3 3 3 3 4 4 4 4 3 3 3 3 3 3 3 3 3 5 6 5 4 4 3 3 3 4 4 4 5 4 4 4 4
3 2 2 2 2 1 0 1 2 2 2 2 2 3 3 4 4 4 4 4 4 4 3 4 4 4 5 6 8 7 4 4 3 3 2 1 3 3 4 5 4 5 4
3 2 2 2 2 1 0 0 1 1 1 1 2 2 3 4 4 3 4 4 5 5 5 5 5 5 5 6 7 8 7 4 3 3 2 1 2 2 3 4 5 5 4
2 1 2 2 2 1 1 0 0 1 1 1 2 2 3 3 3 4 4 4 5 5 5 5 5 4 3 3 6 7 6 5 3 2 2 2 2 3 4 6 6 5 4
2 2 2 2 2 2 1 1 0 1 1 1 2 2 3 3 3 3 4 5 4 4 4 4 4 3 2 2 2 2 3 3 3 3 3 3 3 3 4 3 3 4 4
1 1 1 1 0 0 1 1 1 0 1 2 3 3 4 4 3 4 4 4 2 2 3 3 2 2 2 2 2 1 1 1 1 2 3 3 2 3 3 3 3 3 3
1 1 1 1 0 1 1 2 1 1 2 3 3 4 3 3 3 3 3 2 4 5 5 4 4 3 3 4 2 2 2 2 2 2 3 4 4 4 3 3 3 3 3
Wind_Direction
177 172 172 168 168 168 169 173 180 170 176 184 188 192 194 198 186 182 176 179 197 196 206 244 192 204 210 220 218 230 236 244 242 262 281 259 237 212 211 209 216 218 218
177 173 176 175 174 172 173 175 180 176 182 182 188 190 192 203 193 193 165 176 191 197 204 213 224 215 209 219 221 219 253 261 236 226 275 283 290 266 226 199 204 207 200
179 174 178 180 176 174 175 180 180 174 182 178 185 199 185 213 203 178 167 187 193 194 209 194 217 224 215 210 222 220 226 249 262 231 216 231 252 279 269 222 192 186 185
178 176 180 183 182 177 178 177 173 174 179 181 191 196 193 200 202 184 175 187 198 197 200 204 209 221 232 208 222 210 233 240 260 256 231 223 230 251 298 305 236 197 198
180 178 181 182 183 180 178 175 171 175 179 188 194 200 205 204 196 189 180 187 191 199 205 200 199 208 231 231 226 208 231 242 248 257 245 237 235 231 223 251 251 251 217
182 179 177 176 183 181 177 173 170 177 181 191 198 201 211 209 206 196 182 192 194 195 205 201 192 206 226 235 230 225 228 240 255 267 262 232 228 234 229 234 229 222 240
180 181 176 176 180 181 178 174 172 178 184 192 201 199 208 210 211 207 201 205 201 196 199 200 188 207 217 225 228 225 236 234 240 247 257 258 251 249 237 230 243 225 237
184 186 180 176 179 181 177 174 174 179 185 192 198 199 201 208 212 213 218 204 209 206 183 185 189 206 218 226 218 230 232 232 235 245 245 258 264 259 238 227 233 250 242
183 180 174 173 176 179 178 177 172 178 187 193 192 195 199 209 213 201 212 219 214 214 188 190 197 205 215 226 222 228 231 228 231 244 244 248 259 259 250 239 220 231 252
173 171 173 175 174 178 178 176 173 177 182 189 192 195 194 202 214 210 210 213 213 217 190 194 201 209 217 222 225 239 231 226 231 233 239 243 252 265 257 237 228 228 231
158 167 176 175 172 175 175 175 169 171 178 186 188 194 190 198 206 212 212 213 212 213 203 203 207 214 217 220 222 234 232 228 235 240 232 233 246 254 264 258 244 238 217
114 144 158 167 170 172 171 170 170 172 175 177 181 188 186 192 203 208 206 205 207 210 203 204 212 220 220 222 222 237 239 234 234 235 235 235 234 234 254 258 245 238 219
104 93 100 142 156 163 162 164 166 172 172 168 170 178 188 194 202 203 201 200 202 202 203 199 210 220 224 222 224 235 244 241 241 241 240 240 236 231 231 240 245 240 236
85 88 72 100 113 117 129 141 152 159 164 164 169 173 187 191 194 197 194 197 199 199 198 204 211 217 225 224 228 239 243 243 245 245 242 242 237 232 234 239 244 250 254
70 79 81 79 93 103 109 119 133 139 156 158 168 173 183 188 184 188 191 195 200 204 196 202 211 217 222 221 221 240 241 243 247 248 246 243 231 224 227 237 229 236 245
59 69 86 95 102 116 123 122 125 133 144 159 171 166 172 183 185 187 188 194 201 206 199 204 213 220 225 202 206 221 248 244 242 247 250 250 228 222 213 218 220 223 236
32 53 68 82 110 131 128 131 141 148 156 167 172 175 179 185 187 197 189 191 197 206 210 212 211 218 214 206 202 214 242 246 241 239 239 252 248 221 214 217 223 240 248
354 43 76 99 108 120 132 144 156 163 169 170 182 184 188 193 194 201 197 196 203 214 216 222 216 221 215 204 208 220 236 246 243 236 229 233 249 243 217 229 226 230 243
71 56 90 77 91 125 152 170 180 186 181 173 187 189 191 198 195 196 200 197 209 219 224 226 224 233 220 198 202 210 246 244 243 236 231 222 220 210 209 219 225 237 243
83 73 55 62 69 95 163 182 184 189 195 192 193 188 188 194 195 192 192 207 213 219 229 234 236 241 234 205 200 202 242 249 245 236 228 218 208 202 203 219 224 231 241
61 65 59 62 55 35 58 195 202 205 216 207 200 193 195 202 202 191 189 203 220 222 225 232 229 228 224 204 198 198 230 255 254 239 228 190 169 192 214 227 235 238 249
60 51 60 59 54 40 68 161 194 226 264 249 229 203 199 217 211 194 200 209 219 225 228 230 231 230 218 207 199 200 214 239 259 261 238 159 167 207 227 231 235 243 251
89 78 85 69 58 62 83 57 147 159 208 270 250 216 211 211 208 205 214 222 221 226 227 224 228 227 210 189 183 195 213 233 241 267 284 281 251 245 246 237 238 238 238
60 62 73 76 51 28 16 359 324 180 165 258 264 230 225 217 209 213 225 228 227 230 228 231 232 223 199 181 165 190 209 222 233 258 270 254 242 240 251 253 243 230 235
35 60 76 113 129 359 324 311 310 260 216 236 249 241 234 222 212 215 232 235 228 237 239 245 247 241 228 185 162 193 224 236 249 276 257 250 236 233 232 235 232 228 222
16 13 356 355 350 310 303 297 301 291 267 255 256 255 242 220 221 221 239 238 229 220 216 215 219 220 201 196 211 212 212 204 197 233 249 248 243 242 240 237 239 237 235